EW3156 Weather Reports


Display with metric or nautical units.
time (UTC)temp
F
wind
direction
speed
MPH
gust
MPH
rain 1hr
in
rain 24hr
in
rain mn
in
humidity
%
barometer
mb
20260831050038 78 90 0.0 0.0 0.00 0.00 0.00 86 1017.7
20260831044540 78 90 0.0 0.0 0.00 0.00 0.00 86 1017.7
20260831043040 78 90 0.0 2.0 0.00 0.00 0.00 86 1017.7
20260831041536 78 90 0.0 0.0 0.00 0.00 0.00 86 1017.7
20260831040045 77 90 0.0 0.0 0.00 0.00 0.00 87 1017.6
20260831034534 78 90 0.0 0.0 0.00 0.00 0.00 87 1017.7
20260831033034 78 90 0.0 0.0 0.00 0.00 0.00 87 1017.6
20260831031533 78 90 0.0 0.0 0.00 0.00 0.00 87 1017.7
20260831030032 78 90 0.0 0.0 0.00 0.00 0.00 87 1017.6
20260831024532 78 90 0.0 0.0 0.00 0.00 0.00 87 1017.5
20260831023038 79 90 0.0 0.0 0.00 0.00 0.00 87 1017.6
20260831021548 79 90 0.0 0.0 0.00 0.00 0.00 86 1017.5
20260831020031 80 90 0.0 0.0 0.00 0.00 0.00 85 1017.5
20260831014530 81 90 0.0 0.0 0.00 0.00 0.00 83 1017.2
20260831013030 81 90 0.0 0.0 0.00 0.00 0.00 82 1017.2
20260831011528 82 90 0.0 0.0 0.00 0.00 0.00 80 1017.0
20260831010046 82 90 0.0 0.0 0.00 0.00 0.00 78 1016.8
20260831004528 83 90 0.0 0.0 0.00 0.00 0.00 76 1016.8
20260831003027 84 90 0.0 0.0 0.00 0.00 0.00 74 1016.7
20260831001544 85 90 0.0 0.0 0.00 0.00 0.00 72 1016.6
20260831000026 86 90 0.0 0.0 0.00 0.00 0.00 70 1016.6
20260830234526 87 90 0.0 2.0 0.00 0.00 0.00 68 1016.5
20260830233025 88 90 0.0 1.0 0.00 0.00 0.00 66 1016.5
20260830231530 88 90 0.0 2.0 0.00 0.00 0.00 64 1016.5
20260830230026 89 96 0.0 3.0 0.00 0.00 0.00 62 1016.5
20260830224524 89 80 0.0 2.0 0.00 0.00 0.00 62 1016.3
20260830223025 89 95 1.0 3.0 0.00 0.00 0.00 62 1016.2
20260830221523 90 109 0.0 7.0 0.00 0.00 0.00 62 1016.3
20260830220025 90 86 0.0 3.0 0.00 0.00 0.00 61 1016.3
20260830214522 90 89 0.0 4.0 0.00 0.00 0.00 61 1016.3
20260830213024 91 102 1.0 6.0 0.00 0.00 0.00 60 1016.4
20260830211524 92 86 0.0 3.0 0.00 0.00 0.00 59 1016.5
20260830210020 92 102 1.0 7.0 0.00 0.00 0.00 60 1016.6
20260830204518 92 93 1.0 7.0 0.00 0.00 0.00 60 1016.7
20260830203017 92 172 1.0 4.0 0.00 0.00 0.00 60 1016.9
20260830201514 92 70 0.0 7.0 0.00 0.00 0.00 61 1017.1
20260830200014 91 115 2.0 7.0 0.00 0.00 0.00 62 1017.3
20260830194510 91 160 1.0 7.0 0.00 0.00 0.00 61 1017.5
20260830193008 94 111 0.0 4.0 0.00 0.00 0.00 59 1017.6
20260830191506 92 71 0.0 4.0 0.00 0.00 0.00 62 1017.7
20260830190004 91 252 1.0 5.0 0.00 0.00 0.00 63 1017.8
20260830184501 91 54 2.0 6.0 0.00 0.00 0.00 63 1018.1
20260830183116 91 82 1.0 5.0 0.00 0.00 0.00 65 1018.3
20260830181602 90 86 2.0 4.0 0.00 0.00 0.00 68 1018.6
20260830180107 87 88 0.0 2.0 0.00 0.00 0.00 71 1018.8
20260830174554 88 77 2.0 7.0 0.00 0.00 0.00 69 1019.0
20260830173114 88 96 2.0 6.0 0.00 0.00 0.00 70 1019.2
20260830171556 87 71 1.0 6.0 0.00 0.00 0.00 71 1019.4
20260830170043 86 44 1.0 7.0 0.00 0.00 0.00 74 1019.5
20260830164540 86 86 1.0 4.0 0.00 0.00 0.00 74 1019.7
20260830163038 84 76 2.0 5.0 0.00 0.00 0.00 76 1019.9
20260830161542 85 81 1.0 6.0 0.00 0.00 0.00 76 1020.0
20260830160035 84 81 1.0 3.0 0.00 0.00 0.00 77 1020.2
20260830154636 84 82 1.0 6.0 0.00 0.00 0.00 77 1020.3
20260830153034 84 212 1.0 4.0 0.00 0.00 0.00 78 1020.1
20260830151528 83 67 2.0 7.0 0.00 0.00 0.00 80 1020.1
20260830150027 83 57 0.0 6.0 0.00 0.00 0.00 81 1020.2
20260830144527 83 86 2.0 7.0 0.00 0.00 0.00 81 1020.2
20260830143027 83 90 2.0 6.0 0.00 0.00 0.00 81 1020.1
20260830141518 82 119 1.0 3.0 0.00 0.00 0.00 84 1020.2
20260830140015 81 86 1.0 4.0 0.00 0.00 0.00 85 1020.3
20260830134530 80 87 0.0 4.0 0.00 0.00 0.00 87 1020.3
20260830133007 79 86 0.0 3.0 0.00 0.00 0.00 90 1020.3
20260830131505 78 111 0.0 1.0 0.00 0.00 0.00 92 1020.2
20260830130004 76 111 0.0 3.0 0.00 0.00 0.00 94 1019.9
20260830124558 75 140 0.0 1.0 0.00 0.00 0.00 97 1019.7
20260830123057 74 140 0.0 2.0 0.00 0.00 0.00 98 1019.7
20260830121551 73 140 0.0 1.0 0.00 0.00 0.00 99 1019.6
20260830120048 72 140 0.0 1.0 0.00 0.00 0.00 98 1019.6
20260830114550 72 140 0.0 0.0 0.00 0.00 0.00 98 1019.5
20260830113043 72 140 0.0 0.0 0.00 0.00 0.00 98 1019.3
20260830111541 72 140 0.0 0.0 0.00 0.00 0.00 97 1019.1
20260830110054 72 140 0.0 0.0 0.00 0.00 0.00 97 1018.9
20260830104538 73 140 0.0 0.0 0.00 0.00 0.00 97 1018.7
20260830103037 73 140 0.0 1.0 0.00 0.00 0.00 97 1018.6
20260830101535 73 140 0.0 0.0 0.00 0.00 0.00 96 1018.5
20260830100035 73 140 0.0 0.0 0.00 0.00 0.00 96 1018.4
20260830094534 73 140 0.0 0.0 0.00 0.00 0.00 95 1018.3
20260830093039 74 140 0.0 0.0 0.00 0.00 0.00 95 1018.3
20260830091531 74 140 0.0 0.0 0.00 0.00 0.00 95 1018.3
20260830090031 74 140 0.0 0.0 0.00 0.00 0.00 94 1018.2
20260830084530 74 140 0.0 1.0 0.00 0.00 0.00 94 1018.1
20260830083029 74 140 0.0 1.0 0.00 0.00 0.00 94 1018.0
20260830081533 74 140 0.0 1.0 0.00 0.00 0.00 94 1017.9
20260830080027 74 140 0.0 0.0 0.00 0.00 0.00 93 1018.0
20260830074546 75 140 0.0 0.0 0.00 0.00 0.00 93 1017.9
20260830073025 75 140 0.0 0.0 0.00 0.00 0.00 92 1017.9
20260830071523 75 140 0.0 1.0 0.00 0.00 0.00 92 1018.0
20260830070022 75 140 0.0 1.0 0.00 0.00 0.00 92 1018.0
20260830064520 76 140 0.0 1.0 0.00 0.00 0.00 91 1018.1
20260830063018 76 140 0.0 0.0 0.00 0.00 0.00 90 1018.3
20260830061524 76 140 0.0 0.0 0.00 0.00 0.00 90 1018.3
20260830060014 77 140 0.0 1.0 0.00 0.00 0.00 89 1018.5
20260830054521 77 140 0.0 1.0 0.00 0.00 0.00 89 1018.5
20260830053010 77 141 0.0 1.0 0.00 0.00 0.00 89 1018.5
20260830051523 77 141 0.0 0.0 0.00 0.00 0.00 89 1018.6